Content
SEND FEEDBACK

Daily
Averages
Monthly
Summary
Philippines

QUEZON CITY, PHILIPPINES


Home > Asia > Philippines
Elevation: 151 feet     Latitude: 14 39N     Longitude: 121 03E

WEATHER
 
SELECT A DAY
Number of Records: 178,854;   Date Range: 7/1/96 - 12/17/14
 
SHARE

PRINT THIS DATA

[ ← Previous Day ]
WEATHER ALMANAC - MAY 3, 2013
[ Next Day → ]
[ °C ]   °F
Weather ElementAverageHighLow
Temperature86.8 °F97 °F (2:00 pm)80.6 °F (8:00 pm)
Dewpoint75.1 °F79 °F (11:00 pm)67 °F (2:00 pm)
Humidity68.8 %89 % (5:00 am)29 % (2:00 pm)
Barometer29.79 in29.86 in (11:00 pm)29.74 in (2:00 am)
Wind Speed5 mph13.8 mph (4:00 pm)
Weather ElementAverage
Visibility6.1 mi
Wind DirectionESE (126.1 °)

Weather ElementTotal
Precipitation---
Cooling Degree Days23.8 (Base 65)
Growing Degree Days38.8 (Base 50)
Averaged from 31 records on May 3, 2013
WEATHER CONDITIONS BREAKOUT
WIND DIRECTION BREAKOUT
WEATHER BY HOUR - MAY 3, 2013
[ °C ]   °F
Local TimeTemperatureDewpointHumidityBarometerVisibilityWind DirectionWind SpeedGust SpeedPrecipitationEventsConditions
1:00 AM84.2 °F78.8 °F84 %29.77 in6.2 miVariable2.3 mphPartly Cloudy
2:00 AM84.0 °F78.0 °F79 %29.77 in6.0 miSouth (170°)2.2 mphHaze
2:00 AM84.2 °F78.8 °F84 %29.74 in6.2 miVariable2.3 mphPartly Cloudy
3:00 AM84.2 °F77.0 °F79 %29.77 in6.2 miVariable1.2 mphPartly Cloudy
4:00 AM84.2 °F77.0 °F79 %29.77 in6.2 miVariable2.3 mphPartly Cloudy
5:00 AM82.0 °F78.0 °F85 %29.78 in6.0 miSouth (190°)2.2 mphHaze
5:00 AM82.4 °F78.8 °F89 %29.77 in6.2 miVariable2.3 mphPartly Cloudy
6:00 AM82.4 °F78.8 °F89 %29.80 in6.2 miSSE (160°)3.5 mphPartly Cloudy
7:00 AM84.2 °F78.8 °F84 %29.80 in6.2 miSouth (170°)2.3 mphPartly Cloudy
8:00 AM88.0 °F74.0 °F55 %29.83 in6.0 miSE (130°)4.5 mphHaze
8:00 AM87.8 °F73.4 °F62 %29.83 in6.2 miSE (130°)5.8 mphPartly Cloudy
9:00 AM89.6 °F73.4 °F59 %29.83 in6.2 miESE (110°)4.6 mphPartly Cloudy
10:00 AM91.4 °F73.4 °F55 %29.83 in6.2 miESE (110°)6.9 mphPartly Cloudy
11:00 AM93.0 °F72.0 °F42 %29.82 in6.0 miESE (120°)4.5 mphPartly Cloudy
11:00 AM93.2 °F71.6 °F49 %29.80 in6.2 miESE (120°)8.1 mphPartly Cloudy
12:00 PM95.0 °F71.6 °F47 %29.80 in6.2 miSE (140°)9.2 mphPartly Cloudy
1:00 PM95.0 °F69.8 °F44 %29.77 in6.2 miSE (130°)8.1 mphPartly Cloudy
2:00 PM97.0 °F67.0 °F29 %29.74 in6.0 miSE (130°)6.7 mphScattered Clouds
2:00 PM96.8 °F68.0 °F39 %29.74 in6.2 miSE (130°)6.9 mphPartly Cloudy
3:00 PM89.6 °F75.2 °F62 %29.74 in5.6 miVariable5.8 mphRainLight Rain Showers
4:00 PM84.2 °F75.2 °F74 %29.74 in6.2 miSSW (200°)13.8 mphMostly Cloudy
5:00 PM85.0 °F70.0 °F53 %29.74 in6.0 miWest (260°)6.7 mphHaze
5:00 PM86.0 °F69.8 °F58 %29.74 in6.2 miWest (260°)6.9 mphScattered Clouds
6:00 PM87.8 °F73.4 °F62 %29.77 in6.2 miSSW (210°)5.8 mphPartly Cloudy
7:00 PM86.0 °F75.2 °F70 %29.80 in6.2 miWest (270°)2.3 mphPartly Cloudy
8:00 PM81.0 °F78.0 °F86 %29.84 in6.0 miSSW (200°)8.9 mphRain-ThunderstormThunderstorms and Rain
8:00 PM80.6 °F77.0 °F89 %29.83 in5.6 miSSW (200°)9.2 mphRain-ThunderstormLight Thunderstorms and Rain
9:00 PM82.4 °F78.8 °F89 %29.83 in5.6 miSouth (170°)4.6 mphScattered Clouds
10:00 PM84.2 °F78.8 °F84 %29.83 in5.6 miVariable2.3 mphScattered Clouds
11:00 PM83.0 °F79.0 °F84 %29.86 in6.0 miSSW (200°)2.2 mphHaze
11:00 PM82.4 °F78.8 °F89 %29.83 in5.6 miCalmPartly Cloudy
Hourly data recorded from RPLL, located miles away from Quezon City, Philippines







STORIES FROM OUR PARTNERS